When you browse on this site, cookies collect data to enhance your experience and personalize the content and advertising you see.
Visit our Privacy Policy to learn more. By continuing to use the site, you agree to this use of cookies and data.
  • Em Portugal
  • Lista de países
  • Para 7 dias
  • Temperatura da água
  • Mapa do tempo
  • Widgets de tempo
  • user-avatar
    Iniciar Sessão

    Previsão horária em Ogarevo

    Hoje, 25 Agosto, Domingo

    Tempo Temperatura Precipitação Vento Pressão Humidade
    00:00 +15°C° 0 mm 2 m/s 748 mmHg 70%
    01:00 +14°C° 0 mm 2 m/s 748 mmHg 73%
    02:00 +13°C° 0 mm 3 m/s 748 mmHg 75%
    03:00 +13°C° 0 mm 3 m/s 748 mmHg 78%
    04:00 +13°C° 0 mm 3 m/s 747 mmHg 80%
    05:00 +13°C° 0 mm 3 m/s 747 mmHg 83%
    06:00 +13°C° 0 mm 3 m/s 747 mmHg 86%
    07:00 +14°C° 0 mm 4 m/s 747 mmHg 83%
    08:00 +17°C° 0 mm 4 m/s 748 mmHg 79%
    09:00 +18°C° 0 mm 4 m/s 748 mmHg 76%
    10:00 +19°C° 0 mm 5 m/s 748 mmHg 70%
    11:00 +20°C° 0 mm 5 m/s 748 mmHg 64%
    12:00 +20°C° 0 mm 6 m/s 748 mmHg 59%
    13:00 +20°C° 0 mm 6 m/s 748 mmHg 62%
    14:00 +18°C° 0 mm 7 m/s 748 mmHg 64%
    15:00 +17°C° 0 mm 7 m/s 749 mmHg 67%
    16:00 +17°C° 0 mm 6 m/s 749 mmHg 70%
    17:00 +16°C° 0 mm 5 m/s 749 mmHg 73%
    18:00 +15°C° 0 mm 4 m/s 749 mmHg 75%
    19:00 +14°C° 0 mm 4 m/s 750 mmHg 80%
    20:00 +13°C° 0 mm 3 m/s 750 mmHg 84%
    21:00 +12°C° 0 mm 3 m/s 751 mmHg 88%
    22:00 +12°C° 0 mm 3 m/s 751 mmHg 89%
    23:00 +11°C° 0 mm 3 m/s 751 mmHg 90%

    Amanhã, 26 Agosto, Segunda-feira

    Tempo Temperatura Precipitação Vento Pressão Humidade
    00:00 +11°C° 0 mm 3 m/s 751 mmHg 92%
    01:00 +10°C° 0 mm 2 m/s 752 mmHg 93%
    02:00 +10°C° 0 mm 2 m/s 752 mmHg 94%
    03:00 +9°C° 0 mm 2 m/s 752 mmHg 95%
    04:00 +9°C° 0 mm 2 m/s 752 mmHg 95%
    05:00 +9°C° 0 mm 2 m/s 752 mmHg 95%
    06:00 +9°C° 0 mm 2 m/s 753 mmHg 95%
    07:00 +12°C° 0 mm 2 m/s 753 mmHg 88%
    08:00 +13°C° 0 mm 2 m/s 753 mmHg 81%
    09:00 +15°C° 0 mm 2 m/s 753 mmHg 74%
    10:00 +16°C° 0 mm 3 m/s 753 mmHg 69%
    11:00 +17°C° 0 mm 3 m/s 753 mmHg 64%
    12:00 +18°C° 0 mm 3 m/s 753 mmHg 59%
    13:00 +19°C° 0 mm 3 m/s 752 mmHg 57%
    14:00 +19°C° 0 mm 3 m/s 752 mmHg 56%
    15:00 +20°C° 0 mm 2 m/s 752 mmHg 54%
    16:00 +19°C° 0 mm 2 m/s 752 mmHg 59%
    17:00 +18°C° 0 mm 2 m/s 751 mmHg 64%
    18:00 +18°C° 0 mm 2 m/s 751 mmHg 70%
    19:00 +17°C° 0 mm 2 m/s 751 mmHg 72%
    20:00 +15°C° 0 mm 2 m/s 751 mmHg 75%
    21:00 +14°C° 0 mm 2 m/s 750 mmHg 78%
    22:00 +14°C° 0 mm 2 m/s 750 mmHg 79%
    23:00 +12°C° 0 mm 3 m/s 750 mmHg 81%

    Depois de amanhã, 27 Agosto, Terça-feira

    Tempo Temperatura Precipitação Vento Pressão Humidade
    00:00 +12°C° 0 mm 3 m/s 749 mmHg 82%
    01:00 +12°C° 0 mm 3 m/s 749 mmHg 82%
    02:00 +12°C° 0 mm 3 m/s 748 mmHg 82%
    03:00 +12°C° 0 mm 4 m/s 748 mmHg 82%
    04:00 +12°C° 0 mm 4 m/s 747 mmHg 81%
    05:00 +12°C° 0 mm 5 m/s 747 mmHg 79%
    06:00 +13°C° 0 mm 5 m/s 746 mmHg 78%
    07:00 +14°C° 0 mm 5 m/s 746 mmHg 76%
    08:00 +15°C° 0 mm 6 m/s 745 mmHg 74%
    09:00 +16°C° 0 mm 6 m/s 744 mmHg 72%
    10:00 +17°C° 0.3 mm 6 m/s 744 mmHg 73%
    11:00 +17°C° 0.3 mm 6 m/s 744 mmHg 74%
    12:00 +19°C° 0.3 mm 6 m/s 743 mmHg 74%
    13:00 +19°C° 0.8 mm 6 m/s 743 mmHg 74%
    14:00 +18°C° 0.8 mm 7 m/s 742 mmHg 73%
    15:00 +20°C° 0.8 mm 7 m/s 742 mmHg 73%
    16:00 +19°C° 2.2 mm 6 m/s 741 mmHg 76%
    17:00 +17°C° 2.2 mm 6 m/s 741 mmHg 80%
    18:00 +16°C° 2.2 mm 5 m/s 740 mmHg 83%
    19:00 +15°C° 0.3 mm 5 m/s 740 mmHg 86%
    20:00 +14°C° 0.3 mm 4 m/s 740 mmHg 89%
    21:00 +12°C° 0.3 mm 4 m/s 740 mmHg 91%
    22:00 +12°C° 0.1 mm 4 m/s 740 mmHg 91%
    23:00 +10°C° 0.1 mm 5 m/s 740 mmHg 91%

    28 Agosto, Quarta-feira

    Tempo Temperatura Precipitação Vento Pressão Humidade
    00:00 +10°C° 0.1 mm 6 m/s 740 mmHg 91%
    01:00 +9°C° 0 mm 6 m/s 741 mmHg 90%
    02:00 +7°C° 0 mm 6 m/s 741 mmHg 89%
    03:00 +5°C° 0 mm 6 m/s 741 mmHg 87%
    04:00 +5°C° 0 mm 6 m/s 741 mmHg 85%
    05:00 +5°C° 0 mm 7 m/s 741 mmHg 83%
    06:00 +5°C° 0 mm 7 m/s 742 mmHg 81%
    07:00 +5°C° 0 mm 7 m/s 742 mmHg 79%
    08:00 +6°C° 0 mm 8 m/s 742 mmHg 77%
    09:00 +6°C° 0 mm 8 m/s 742 mmHg 75%
    10:00 +6°C° 0 mm 8 m/s 742 mmHg 75%
    11:00 +6°C° 0 mm 8 m/s 743 mmHg 75%
    12:00 +6°C° 0 mm 8 m/s 743 mmHg 74%
    13:00 +6°C° 0 mm 8 m/s 743 mmHg 75%
    14:00 +6°C° 0 mm 7 m/s 744 mmHg 77%
    15:00 +6°C° 0 mm 7 m/s 744 mmHg 78%
    16:00 +6°C° 0 mm 7 m/s 744 mmHg 78%
    17:00 +6°C° 0 mm 7 m/s 744 mmHg 78%
    18:00 +6°C° 0 mm 7 m/s 745 mmHg 78%
    19:00 +7°C° 0 mm 6 m/s 744 mmHg 76%
    20:00 +7°C° 0 mm 6 m/s 744 mmHg 75%
    21:00 +7°C° 0 mm 6 m/s 744 mmHg 73%
    22:00 +7°C° 0 mm 6 m/s 744 mmHg 75%
    23:00 +5°C° 0 mm 6 m/s 744 mmHg 77%

    29 Agosto, Quinta-feira

    Tempo Temperatura Precipitação Vento Pressão Humidade
    00:00 +5°C° 0 mm 6 m/s 745 mmHg 78%
    01:00 +4°C° 0 mm 6 m/s 744 mmHg 79%
    02:00 +4°C° 0 mm 6 m/s 744 mmHg 80%
    03:00 +4°C° 0 mm 6 m/s 744 mmHg 81%
    04:00 +4°C° 0 mm 7 m/s 745 mmHg 81%
    05:00 +3°C° 0 mm 7 m/s 745 mmHg 81%
    06:00 +3°C° 0 mm 7 m/s 745 mmHg 81%
    07:00 +4°C° 0 mm 8 m/s 745 mmHg 79%
    08:00 +5°C° 0 mm 8 m/s 745 mmHg 76%
    09:00 +6°C° 0 mm 8 m/s 745 mmHg 74%
    10:00 +6°C° 0 mm 8 m/s 746 mmHg 74%
    11:00 +6°C° 0 mm 8 m/s 746 mmHg 74%
    12:00 +8°C° 0 mm 7 m/s 746 mmHg 74%
    13:00 +8°C° 0 mm 7 m/s 746 mmHg 73%
    14:00 +8°C° 0 mm 7 m/s 746 mmHg 73%
    15:00 +8°C° 0 mm 7 m/s 747 mmHg 73%
    16:00 +8°C° 0 mm 7 m/s 747 mmHg 74%
    17:00 +8°C° 0 mm 6 m/s 747 mmHg 75%
    18:00 +8°C° 0 mm 6 m/s 747 mmHg 76%
    19:00 +7°C° 0 mm 5 m/s 747 mmHg 79%
    20:00 +7°C° 0 mm 4 m/s 748 mmHg 81%
    21:00 +7°C° 0 mm 3 m/s 748 mmHg 84%
    22:00 +7°C° 0 mm 3 m/s 748 mmHg 82%
    23:00 +8°C° 0 mm 3 m/s 748 mmHg 81%

    30 Agosto, Sexta-feira

    Tempo Temperatura Precipitação Vento Pressão Humidade
    00:00 +8°C° 0 mm 3 m/s 748 mmHg 79%
    01:00 +7°C° 0 mm 3 m/s 748 mmHg 83%
    02:00 +5°C° 0 mm 3 m/s 748 mmHg 87%
    03:00 +4°C° 0 mm 3 m/s 748 mmHg 92%
    04:00 +4°C° 0 mm 3 m/s 748 mmHg 91%
    05:00 +4°C° 0 mm 3 m/s 748 mmHg 90%
    06:00 +4°C° 0 mm 3 m/s 748 mmHg 89%
    07:00 +6°C° 0 mm 4 m/s 748 mmHg 82%
    08:00 +7°C° 0 mm 4 m/s 748 mmHg 75%
    09:00 +9°C° 0 mm 5 m/s 748 mmHg 68%
    10:00 +10°C° 0 mm 5 m/s 747 mmHg 65%
    11:00 +12°C° 0 mm 5 m/s 747 mmHg 62%
    12:00 +13°C° 0 mm 5 m/s 747 mmHg 59%
    13:00 +13°C° 0.1 mm 5 m/s 747 mmHg 62%
    14:00 +12°C° 0.1 mm 5 m/s 747 mmHg 64%
    15:00 +11°C° 0.1 mm 6 m/s 746 mmHg 67%
    16:00 +9°C° 0.7 mm 5 m/s 746 mmHg 74%
    17:00 +8°C° 0.7 mm 4 m/s 746 mmHg 81%
    18:00 +6°C° 0.7 mm 4 m/s 746 mmHg 88%
    19:00 +7°C° 0 mm 3 m/s 747 mmHg 91%
    20:00 +5°C° 0 mm 3 m/s 747 mmHg 93%
    21:00 +4°C° 0 mm 3 m/s 747 mmHg 96%
    22:00 +4°C° 0 mm 3 m/s 747 mmHg 95%
    23:00 +4°C° 0 mm 3 m/s 747 mmHg 95%
    Mostrar mais